Andover, NJ

2:35 PM EDT on September 26, 2017 (GMT -0400)
Andover

Weather History for K12N - November, 2013

Change the Weather History Date:

Saturday, November 9, 2013

  Actual Average (KFWN) Record (KFWN)
Temperature  
Mean Temperature 38 °F -  
Max Temperature 48 °F 52 °F 72 °F (1975)
Min Temperature 28 °F 31 °F 15 °F (1992)
Degree Days  
Heating Degree Days 27    
Moisture  
Dew Point 26 °F    
Average Humidity 62    
Maximum Humidity 92    
Minimum Humidity 39    
Precipitation  
Precipitation 0.00 in - - ()
Sea Level Pressure  
Sea Level Pressure 30.19 in    
Wind  
Wind Speed 2 mph (SSW)    
Max Wind Speed 9 mph    
Max Gust Speed 20 mph    
Averages and records for this station are not official NWS values.
T = Trace of Precipitation, MM = Missing Value Source: NWS Daily Summary

Daily Weather History Graph

Daily Weather History Graph

Search for Another Location

Airport or City:

Trip Planner

Search our weather history database for the weather conditions in past years. The results will help you decide how hot, cold, wet, or windy it might be!

Date:

Astronomy

Nov. 09, 2013 Rise Set
Actual Time 6:39 AM EST 4:45 PM EST
Civil Twilight 6:10 AM EST 5:14 PM EST
Nautical Twilight 5:37 AM EST 5:47 PM EST
Astronomical Twilight 5:05 AM EST 6:19 PM EST
Moon 12:14 PM EST (11/9) 11:13 PM EST (11/9)
Length of Visible Light 11h 04m
Length of Day
10h 05m
Waxing Crescent, 44% of the Moon is Illuminated
Nov 9
Waxing Crescent
Nov 10
First Quarter
Nov 17
Full
Nov 25
Last Quarter
Dec 2
New

Hourly Weather History & Observations

Time (EST) Temp. Windchill Dew Point Humidity Pressure Visibility Wind Dir Wind Speed Gust Speed Precip Events Conditions
12:54 AM 30.9 °F - 24.1 °F 76% 30.25 in - Calm Calm - N/A   Unknown
1:54 AM 30.0 °F - 25.0 °F 82% 30.27 in - Calm Calm - N/A   Unknown
2:54 AM 30.0 °F - 27.0 °F 88% 30.27 in - Calm Calm - N/A   Unknown
3:54 AM 28.9 °F - 25.0 °F 85% 30.27 in - Calm Calm - N/A   Unknown
4:54 AM 28.9 °F - 25.0 °F 85% 30.29 in - Calm Calm - N/A   Unknown
5:54 AM 28.9 °F - 25.0 °F 85% 30.30 in - Calm Calm - N/A   Unknown
6:54 AM 28.0 °F - 26.1 °F 92% 30.30 in - Calm Calm - N/A   Unknown
7:54 AM 32.0 °F - 27.0 °F 82% 30.31 in - Calm Calm - N/A   Unknown
8:54 AM 36.0 °F - 28.0 °F 73% 30.31 in - Calm Calm - N/A   Unknown
9:54 AM 37.9 °F - 28.9 °F 70% 30.29 in - Calm Calm - N/A   Unknown
10:54 AM 41.0 °F 36.4 °F 28.9 °F 62% 30.29 in - SW 6.9 mph - N/A   Unknown
11:54 AM 45.0 °F 41.2 °F 26.1 °F 48% 30.25 in - Variable 6.9 mph - N/A   Unknown
12:54 PM 46.9 °F - 24.1 °F 41% 30.21 in - Variable 4.6 mph - N/A   Unknown
1:54 PM 48.0 °F - 24.1 °F 39% 30.17 in - SSW 8.1 mph 19.6 mph N/A   Unknown
2:54 PM 46.9 °F - 25.0 °F 42% 30.13 in - SW 9.2 mph - N/A   Unknown
3:54 PM 46.9 °F - 24.1 °F 41% 30.13 in - Variable 4.6 mph - N/A   Unknown
4:54 PM 45.0 °F 41.8 °F 24.1 °F 44% 30.12 in - Variable 5.8 mph - N/A   Unknown
5:54 PM 45.0 °F 42.6 °F 24.1 °F 44% 30.12 in - South 4.6 mph - N/A   Unknown
6:54 PM 44.1 °F 42.5 °F 25.0 °F 47% 30.11 in - South 3.5 mph - N/A   Unknown
7:54 PM 44.1 °F 42.5 °F 26.1 °F 49% 30.10 in - South 3.5 mph - N/A   Unknown
8:54 PM 44.1 °F 42.5 °F 27.0 °F 51% 30.08 in - South 3.5 mph - N/A   Unknown
9:54 PM 44.1 °F 42.5 °F 28.0 °F 53% 30.05 in - South 3.5 mph - N/A   Unknown
10:54 PM 44.1 °F 40.8 °F 28.9 °F 55% 30.01 in - South 5.8 mph - N/A   Unknown
11:54 PM 44.1 °F 42.5 °F 30.9 °F 60% 29.99 in - Variable 3.5 mph - N/A   Unknown